Time,TemperatureF,DewpointF,PressureIn,WindDirection,WindDirectionDegrees,WindSpeedMPH,WindSpeedGustMPH,Humidity,HourlyPrecipIn,Conditions,Clouds,dailyrainin,SoftwareType,DateUTC
2013-09-17 00:00:00,63.1,45.2,29.96,WSW,237,0.0,0.0,52,0.00,,---,0.00,VWS V13.01,2013-09-17 04:00:00,
2013-09-17 00:01:00,63.1,45.2,29.96,WSW,237,0.0,0.0,52,0.00,,---,0.00,VWS V13.01,2013-09-17 04:01:00,
2013-09-17 00:06:00,63.1,45.8,29.96,WSW,237,0.0,0.0,53,0.00,,---,0.00,VWS V13.01,2013-09-17 04:06:00,
2013-09-17 00:11:00,63.1,45.8,29.96,WSW,237,0.0,0.0,53,0.00,,---,0.00,VWS V13.01,2013-09-17 04:11:00,
2013-09-17 00:16:00,63.0,45.1,29.96,WSW,237,0.0,0.0,52,0.00,,---,0.00,VWS V13.01,2013-09-17 04:16:00,
2013-09-17 00:21:00,62.8,45.4,29.96,WSW,237,0.0,0.0,53,0.00,,---,0.00,VWS V13.01,2013-09-17 04:21:00,
2013-09-17 00:26:00,62.6,45.2,29.96,WSW,237,0.0,0.0,53,0.00,,---,0.00,VWS V13.01,2013-09-17 04:26:00,
2013-09-17 00:31:00,62.6,45.2,29.96,WSW,237,0.0,0.0,53,0.00,,---,0.00,VWS V13.01,2013-09-17 04:31:00,
2013-09-17 00:36:00,62.4,45.1,29.96,WSW,237,0.0,0.0,53,0.00,,---,0.00,VWS V13.01,2013-09-17 04:36:00,
2013-09-17 00:41:00,62.2,45.4,29.96,WSW,237,0.0,0.0,54,0.00,,---,0.00,VWS V13.01,2013-09-17 04:41:00,
2013-09-17 00:46:00,62.2,45.4,29.96,WSW,237,0.0,0.0,54,0.00,,---,0.00,VWS V13.01,2013-09-17 04:46:00,
2013-09-17 00:51:00,62.1,45.2,29.96,WSW,237,0.0,0.0,54,0.00,,---,0.00,VWS V13.01,2013-09-17 04:51:00,
2013-09-17 00:56:00,62.1,45.2,29.96,WSW,237,0.0,0.0,54,0.00,,---,0.00,VWS V13.01,2013-09-17 04:56:00,
2013-09-17 01:01:00,61.7,45.4,29.96,WSW,237,0.0,0.0,55,0.00,,---,0.00,VWS V13.01,2013-09-17 05:01:00,
2013-09-17 01:06:00,61.7,45.4,29.96,WSW,237,0.0,0.0,55,0.00,,---,0.00,VWS V13.01,2013-09-17 05:06:00,
2013-09-17 01:11:00,61.7,45.4,29.96,WSW,237,0.0,0.0,55,0.00,,---,0.00,VWS V13.01,2013-09-17 05:11:00,
2013-09-17 01:16:00,61.5,44.7,29.96,WSW,237,0.0,0.0,54,0.00,,---,0.00,VWS V13.01,2013-09-17 05:16:00,
2013-09-17 01:21:00,61.5,44.7,29.96,WSW,237,0.0,0.0,54,0.00,,---,0.00,VWS V13.01,2013-09-17 05:21:00,
2013-09-17 01:26:00,61.2,44.4,29.96,WSW,237,0.0,0.0,54,0.00,,---,0.00,VWS V13.01,2013-09-17 05:26:00,
2013-09-17 01:31:00,61.0,44.7,29.96,WSW,237,0.0,0.0,55,0.00,,---,0.00,VWS V13.01,2013-09-17 05:31:00,
2013-09-17 01:36:00,60.6,45.3,29.96,WSW,237,0.0,0.0,57,0.00,,---,0.00,VWS V13.01,2013-09-17 05:36:00,
2013-09-17 01:41:00,60.4,45.2,29.96,WSW,237,0.0,0.0,57,0.00,,---,0.00,VWS V13.01,2013-09-17 05:41:00,
2013-09-17 01:46:00,60.4,45.6,29.96,WSW,237,0.0,0.0,58,0.00,,---,0.00,VWS V13.01,2013-09-17 05:46:00,
2013-09-17 01:51:00,60.4,45.6,29.96,WSW,237,0.0,0.0,58,0.00,,---,0.00,VWS V13.01,2013-09-17 05:51:00,
2013-09-17 01:56:00,60.4,45.6,29.96,WSW,237,0.0,0.0,58,0.00,,---,0.00,VWS V13.01,2013-09-17 05:56:00,
2013-09-17 02:01:00,60.3,45.4,29.96,WSW,237,0.0,0.0,58,0.00,,---,0.00,VWS V13.01,2013-09-17 06:01:00,
2013-09-17 02:06:00,60.3,45.4,29.96,WSW,237,0.0,0.0,58,0.00,,---,0.00,VWS V13.01,2013-09-17 06:06:00,
2013-09-17 02:11:00,60.4,45.6,29.96,WSW,237,0.0,0.0,58,0.00,,---,0.00,VWS V13.01,2013-09-17 06:11:00,
2013-09-17 02:16:00,60.4,45.6,29.96,WSW,237,0.0,0.0,58,0.00,,---,0.00,VWS V13.01,2013-09-17 06:16:00,
2013-09-17 02:21:00,60.4,45.6,29.96,WSW,237,0.0,0.0,58,0.00,,---,0.00,VWS V13.01,2013-09-17 06:21:00,
2013-09-17 02:26:00,60.4,45.6,29.96,WSW,237,0.0,0.0,58,0.00,,---,0.00,VWS V13.01,2013-09-17 06:26:00,
2013-09-17 02:31:00,60.1,44.8,29.96,WSW,237,0.0,0.0,57,0.00,,---,0.00,VWS V13.01,2013-09-17 06:31:00,
2013-09-17 02:36:00,60.1,44.8,29.96,WSW,237,0.0,0.0,57,0.00,,---,0.00,VWS V13.01,2013-09-17 06:36:00,
2013-09-17 02:42:00,60.1,45.3,29.96,WSW,237,0.0,0.0,58,0.00,,---,0.00,VWS V13.01,2013-09-17 06:42:00,
2013-09-17 02:47:00,60.1,44.8,29.96,WSW,237,0.0,0.0,57,0.00,,---,0.00,VWS V13.01,2013-09-17 06:47:00,
2013-09-17 02:52:00,59.7,44.9,29.96,WSW,237,0.0,0.0,58,0.00,,---,0.00,VWS V13.01,2013-09-17 06:52:00,
2013-09-17 02:57:00,59.7,44.9,29.96,WSW,237,0.0,0.0,58,0.00,,---,0.00,VWS V13.01,2013-09-17 06:57:00,
2013-09-17 03:02:00,59.5,44.8,29.96,WSW,237,0.0,0.0,58,0.00,,---,0.00,VWS V13.01,2013-09-17 07:02:00,
2013-09-17 03:07:00,59.5,44.8,29.96,WSW,237,0.0,0.0,58,0.00,,---,0.00,VWS V13.01,2013-09-17 07:07:00,
2013-09-17 03:12:00,59.4,44.6,29.96,WSW,237,0.0,0.0,58,0.00,,---,0.00,VWS V13.01,2013-09-17 07:12:00,
2013-09-17 03:17:00,59.2,44.4,29.96,WSW,237,0.0,0.0,58,0.00,,---,0.00,VWS V13.01,2013-09-17 07:17:00,
2013-09-17 03:22:00,59.2,44.4,29.96,WSW,237,0.0,0.0,58,0.00,,---,0.00,VWS V13.01,2013-09-17 07:22:00,
2013-09-17 03:27:00,59.2,44.9,29.96,WSW,237,0.0,0.0,59,0.00,,---,0.00,VWS V13.01,2013-09-17 07:27:00,
2013-09-17 03:32:00,59.2,44.9,29.96,WSW,237,0.0,0.0,59,0.00,,---,0.00,VWS V13.01,2013-09-17 07:32:00,
2013-09-17 03:37:00,59.0,44.7,29.96,WSW,237,0.0,0.0,59,0.00,,---,0.00,VWS V13.01,2013-09-17 07:37:00,
2013-09-17 03:42:00,59.0,44.7,29.96,WSW,237,0.0,0.0,59,0.00,,---,0.00,VWS V13.01,2013-09-17 07:42:00,
2013-09-17 03:47:00,58.6,44.4,29.96,WSW,237,0.0,0.0,59,0.00,,---,0.00,VWS V13.01,2013-09-17 07:47:00,
2013-09-17 03:52:00,58.5,44.6,29.96,WSW,237,0.0,0.0,60,0.00,,---,0.00,VWS V13.01,2013-09-17 07:52:00,
2013-09-17 03:57:00,58.3,44.5,29.96,WSW,237,0.0,0.0,60,0.00,,---,0.00,VWS V13.01,2013-09-17 07:57:00,
2013-09-17 04:02:00,58.3,44.5,29.96,WSW,237,0.0,0.0,60,0.00,,---,0.00,VWS V13.01,2013-09-17 08:02:00,
2013-09-17 04:07:00,58.1,44.3,29.96,WSW,237,0.0,0.0,60,0.00,,---,0.00,VWS V13.01,2013-09-17 08:07:00,
2013-09-17 04:12:00,58.1,44.3,29.96,WSW,237,0.0,0.0,60,0.00,,---,0.00,VWS V13.01,2013-09-17 08:12:00,
2013-09-17 04:17:00,58.1,44.3,29.96,WSW,237,0.0,0.0,60,0.00,,---,0.00,VWS V13.01,2013-09-17 08:17:00,
2013-09-17 04:22:00,57.7,44.4,29.96,WSW,237,0.0,0.0,61,0.00,,---,0.00,VWS V13.01,2013-09-17 08:22:00,
2013-09-17 04:27:00,57.7,44.4,29.96,WSW,237,0.0,0.0,61,0.00,,---,0.00,VWS V13.01,2013-09-17 08:27:00,
2013-09-17 04:32:00,57.7,44.4,29.96,WSW,237,0.0,0.0,61,0.00,,---,0.00,VWS V13.01,2013-09-17 08:32:00,
2013-09-17 04:37:00,57.6,44.2,29.96,WSW,237,0.0,0.0,61,0.00,,---,0.00,VWS V13.01,2013-09-17 08:37:00,
2013-09-17 04:42:00,57.6,44.2,29.96,WSW,237,0.0,0.0,61,0.00,,---,0.00,VWS V13.01,2013-09-17 08:42:00,
2013-09-17 04:47:00,57.6,44.2,29.96,WSW,237,0.0,0.0,61,0.00,,---,0.00,VWS V13.01,2013-09-17 08:47:00,
2013-09-17 04:52:00,57.4,44.5,29.96,WSW,237,0.0,0.0,62,0.00,,---,0.00,VWS V13.01,2013-09-17 08:52:00,
2013-09-17 04:57:00,57.2,44.3,29.96,WSW,237,0.0,0.0,62,0.00,,---,0.00,VWS V13.01,2013-09-17 08:57:00,
2013-09-17 05:02:00,57.4,44.5,29.96,WSW,237,0.0,0.0,62,0.00,,---,0.00,VWS V13.01,2013-09-17 09:02:00,
2013-09-17 05:07:00,57.4,44.5,29.96,WSW,237,0.0,0.0,62,0.00,,---,0.00,VWS V13.01,2013-09-17 09:07:00,
2013-09-17 05:12:00,57.6,44.7,29.96,WSW,237,0.0,0.0,62,0.00,,---,0.00,VWS V13.01,2013-09-17 09:12:00,
2013-09-17 05:17:00,57.6,44.7,29.96,WSW,237,0.0,0.0,62,0.00,,---,0.00,VWS V13.01,2013-09-17 09:17:00,
2013-09-17 05:22:00,57.6,45.1,29.96,WSW,237,0.0,0.0,63,0.00,,---,0.00,VWS V13.01,2013-09-17 09:22:00,
2013-09-17 05:27:00,57.4,44.9,29.96,WSW,237,0.0,0.0,63,0.00,,---,0.00,VWS V13.01,2013-09-17 09:27:00,
2013-09-17 05:32:00,57.4,44.9,29.96,WSW,237,0.0,0.0,63,0.00,,---,0.00,VWS V13.01,2013-09-17 09:32:00,
2013-09-17 05:37:00,57.2,44.7,29.96,WSW,237,0.0,0.0,63,0.00,,---,0.00,VWS V13.01,2013-09-17 09:37:00,
2013-09-17 05:42:00,57.2,44.7,29.96,WSW,237,0.0,0.0,63,0.00,,---,0.00,VWS V13.01,2013-09-17 09:42:00,
2013-09-17 05:47:00,57.2,44.7,29.96,WSW,237,0.0,0.0,63,0.00,,---,0.00,VWS V13.01,2013-09-17 09:47:00,
2013-09-17 05:52:00,57.2,44.7,29.96,WSW,237,0.0,0.0,63,0.00,,---,0.00,VWS V13.01,2013-09-17 09:52:00,
2013-09-17 05:57:00,57.0,44.6,29.96,WSW,237,0.0,0.0,63,0.00,,---,0.00,VWS V13.01,2013-09-17 09:57:00,
2013-09-17 06:02:00,57.0,44.6,29.96,WSW,237,0.0,0.0,63,0.00,,---,0.00,VWS V13.01,2013-09-17 10:02:00,
2013-09-17 06:07:00,57.0,44.6,29.96,WSW,237,0.0,0.0,63,0.00,,---,0.00,VWS V13.01,2013-09-17 10:07:00,
2013-09-17 06:12:00,56.8,44.4,29.96,WSW,237,0.0,0.0,63,0.00,,---,0.00,VWS V13.01,2013-09-17 10:12:00,
2013-09-17 06:17:00,56.7,44.2,29.96,WSW,237,0.0,0.0,63,0.00,,---,0.00,VWS V13.01,2013-09-17 10:17:00,
2013-09-17 06:22:00,56.5,44.0,29.96,WSW,237,0.0,0.0,63,0.00,,---,0.00,VWS V13.01,2013-09-17 10:22:00,
2013-09-17 06:27:00,56.5,44.0,29.96,WSW,237,0.0,0.0,63,0.00,,---,0.00,VWS V13.01,2013-09-17 10:27:00,
2013-09-17 06:32:00,56.5,44.0,29.96,WSW,237,0.0,0.0,63,0.00,,---,0.00,VWS V13.01,2013-09-17 10:32:00,
2013-09-17 06:37:00,56.5,44.0,29.96,WSW,237,0.0,0.0,63,0.00,,---,0.00,VWS V13.01,2013-09-17 10:37:00,
2013-09-17 06:42:00,56.5,44.0,29.96,WSW,237,0.0,0.0,63,0.00,,---,0.00,VWS V13.01,2013-09-17 10:42:00,
2013-09-17 06:47:00,56.5,43.6,29.96,WSW,237,0.0,0.0,62,0.00,,---,0.00,VWS V13.01,2013-09-17 10:47:00,
2013-09-17 06:52:00,56.5,43.6,29.96,WSW,237,0.0,0.0,62,0.00,,---,0.00,VWS V13.01,2013-09-17 10:52:00,
2013-09-17 06:57:00,56.3,43.0,29.96,WSW,237,0.0,0.0,61,0.00,,---,0.00,VWS V13.01,2013-09-17 10:57:00,
2013-09-17 07:02:00,56.3,43.0,29.96,WSW,237,0.0,0.0,61,0.00,,---,0.00,VWS V13.01,2013-09-17 11:02:00,
2013-09-17 07:07:00,56.3,43.0,29.96,WSW,237,0.0,0.0,61,0.00,,---,0.00,VWS V13.01,2013-09-17 11:07:00,
2013-09-17 07:12:00,56.1,42.9,29.96,WSW,237,0.0,0.0,61,0.00,,---,0.00,VWS V13.01,2013-09-17 11:12:00,
2013-09-17 07:17:00,56.1,42.9,29.96,WSW,237,0.0,0.0,61,0.00,,---,0.00,VWS V13.01,2013-09-17 11:17:00,
2013-09-17 07:23:00,56.1,42.9,29.96,WSW,237,0.0,0.0,61,0.00,,---,0.00,VWS V13.01,2013-09-17 11:23:00,
2013-09-17 07:27:00,56.1,42.9,29.96,WSW,237,0.0,0.0,61,0.00,,---,0.00,VWS V13.01,2013-09-17 11:27:00,
2013-09-17 07:32:00,56.3,42.6,29.96,WSW,237,0.0,0.0,60,0.00,,---,0.00,VWS V13.01,2013-09-17 11:32:00,
2013-09-17 07:37:00,56.3,42.6,29.96,WSW,237,0.0,0.0,60,0.00,,---,0.00,VWS V13.01,2013-09-17 11:37:00,
2013-09-17 07:43:00,56.3,42.6,29.96,WSW,237,0.0,0.0,60,0.00,,---,0.00,VWS V13.01,2013-09-17 11:43:00,
2013-09-17 07:48:00,56.5,42.8,29.96,WSW,237,0.0,0.0,60,0.00,,---,0.00,VWS V13.01,2013-09-17 11:48:00,
2013-09-17 07:53:00,56.5,42.8,29.96,WSW,237,0.0,0.0,60,0.00,,---,0.00,VWS V13.01,2013-09-17 11:53:00,
2013-09-17 07:58:00,56.7,42.5,29.96,WSW,237,0.0,0.0,59,0.00,,---,0.00,VWS V13.01,2013-09-17 11:58:00,
2013-09-17 08:03:00,56.7,42.5,29.96,WSW,237,0.0,0.0,59,0.00,,---,0.00,VWS V13.01,2013-09-17 12:03:00,
2013-09-17 08:08:00,56.8,42.2,29.96,WSW,237,0.0,0.0,58,0.00,,---,0.00,VWS V13.01,2013-09-17 12:08:00,
2013-09-17 08:13:00,56.8,42.2,29.96,WSW,237,0.0,0.0,58,0.00,,---,0.00,VWS V13.01,2013-09-17 12:13:00,
2013-09-17 08:18:00,56.8,42.2,29.96,WSW,237,0.0,0.0,58,0.00,,---,0.00,VWS V13.01,2013-09-17 12:18:00,
2013-09-17 08:23:00,56.8,42.7,29.96,WSW,237,0.0,0.0,59,0.00,,---,0.00,VWS V13.01,2013-09-17 12:23:00,
2013-09-17 08:28:00,56.8,43.5,29.96,WSW,237,0.0,0.0,61,0.00,,---,0.00,VWS V13.01,2013-09-17 12:28:00,
2013-09-17 08:33:00,56.8,43.5,29.96,WSW,237,0.0,0.0,61,0.00,,---,0.00,VWS V13.01,2013-09-17 12:33:00,
2013-09-17 08:38:00,56.8,43.5,29.96,WSW,237,0.0,0.0,61,0.00,,---,0.00,VWS V13.01,2013-09-17 12:38:00,
2013-09-17 08:43:00,57.2,43.9,29.96,WSW,237,0.0,0.0,61,0.00,,---,0.00,VWS V13.01,2013-09-17 12:43:00,
2013-09-17 08:48:00,57.4,44.5,29.96,SW,236,0.0,0.0,62,0.00,,---,0.00,VWS V13.01,2013-09-17 12:48:00,
2013-09-17 08:53:00,57.6,44.2,29.96,WSW,238,0.0,0.0,61,0.00,,---,0.00,VWS V13.01,2013-09-17 12:53:00,
2013-09-17 08:58:00,57.7,44.4,29.96,SW,231,0.0,0.0,61,0.00,,---,0.00,VWS V13.01,2013-09-17 12:58:00,
2013-09-17 09:03:00,57.9,44.6,29.96,SW,236,0.0,0.0,61,0.00,,---,0.00,VWS V13.01,2013-09-17 13:03:00,
2013-09-17 09:08:00,58.1,45.2,29.96,SW,222,0.0,0.0,62,0.00,,---,0.00,VWS V13.01,2013-09-17 13:08:00,
2013-09-17 09:13:00,58.3,44.9,29.96,SW,233,0.0,0.0,61,0.00,,---,0.00,VWS V13.01,2013-09-17 13:13:00,
2013-09-17 09:18:00,58.6,44.4,29.96,SW,224,0.0,0.0,59,0.00,,---,0.00,VWS V13.01,2013-09-17 13:18:00,
2013-09-17 09:23:00,58.6,43.9,29.96,WSW,237,0.0,0.0,58,0.00,,---,0.00,VWS V13.01,2013-09-17 13:23:00,
2013-09-17 09:28:00,58.8,44.5,29.96,SSW,208,0.0,0.0,59,0.00,,---,0.00,VWS V13.01,2013-09-17 13:28:00,
2013-09-17 09:33:00,59.2,44.9,29.96,SW,230,0.0,0.0,59,0.00,,---,0.00,VWS V13.01,2013-09-17 13:33:00,
2013-09-17 09:38:00,59.5,45.2,29.96,SW,229,0.0,0.0,59,0.00,,---,0.00,VWS V13.01,2013-09-17 13:38:00,
2013-09-17 09:43:00,59.7,45.4,29.96,SSW,198,2.2,2.2,59,0.00,,---,0.00,VWS V13.01,2013-09-17 13:43:00,
2013-09-17 09:48:00,60.1,44.3,29.96,WSW,245,0.0,0.0,56,0.00,,---,0.00,VWS V13.01,2013-09-17 13:48:00,
2013-09-17 09:53:00,60.3,44.0,29.96,SSW,202,0.0,0.0,55,0.00,,---,0.00,VWS V13.01,2013-09-17 13:53:00,
2013-09-17 09:58:00,60.4,43.7,29.96,SW,234,3.1,3.1,54,0.00,,---,0.00,VWS V13.01,2013-09-17 13:58:00,
2013-09-17 10:03:00,60.6,42.9,29.96,SW,232,2.7,2.7,52,0.00,,---,0.00,VWS V13.01,2013-09-17 14:03:00,
2013-09-17 10:08:00,60.6,42.9,29.96,SW,236,0.0,5.8,52,0.00,,---,0.00,VWS V13.01,2013-09-17 14:08:00,
2013-09-17 10:13:00,60.6,42.4,29.96,SW,225,4.9,4.9,51,0.00,,---,0.00,VWS V13.01,2013-09-17 14:13:00,
2013-09-17 10:18:00,60.6,42.4,29.96,SW,234,3.6,3.6,51,0.00,,---,0.00,VWS V13.01,2013-09-17 14:18:00,
2013-09-17 10:23:00,61.0,42.2,29.96,WSW,238,0.0,0.0,50,0.00,,---,0.00,VWS V13.01,2013-09-17 14:23:00,
2013-09-17 10:28:00,61.0,41.7,29.96,WSW,237,6.3,6.3,49,0.00,,---,0.00,VWS V13.01,2013-09-17 14:28:00,
2013-09-17 10:33:00,61.0,41.7,29.96,WSW,237,2.7,2.7,49,0.00,,---,0.00,VWS V13.01,2013-09-17 14:33:00,
2013-09-17 10:38:00,61.3,42.0,29.96,WSW,237,2.7,2.7,49,0.00,,---,0.00,VWS V13.01,2013-09-17 14:38:00,
2013-09-17 10:43:00,61.5,42.2,29.96,WSW,241,3.1,3.1,49,0.00,,---,0.00,VWS V13.01,2013-09-17 14:43:00,
2013-09-17 10:48:00,61.9,41.5,29.96,WSW,240,0.0,0.0,47,0.00,,---,0.00,VWS V13.01,2013-09-17 14:48:00,
2013-09-17 10:53:00,62.6,41.5,29.96,SW,235,0.0,0.0,46,0.00,,---,0.00,VWS V13.01,2013-09-17 14:53:00,
2013-09-17 10:58:00,62.8,41.2,29.96,WSW,240,0.0,2.2,45,0.00,,---,0.00,VWS V13.01,2013-09-17 14:58:00,
2013-09-17 11:03:00,62.8,41.7,29.96,SW,233,0.0,0.0,46,0.00,,---,0.00,VWS V13.01,2013-09-17 15:03:00,
2013-09-17 11:08:00,63.0,41.3,29.96,SW,234,3.1,3.1,45,0.00,,---,0.00,VWS V13.01,2013-09-17 15:08:00,
2013-09-17 11:13:00,62.8,41.7,29.96,WSW,241,0.0,0.0,46,0.00,,---,0.00,VWS V13.01,2013-09-17 15:13:00,
2013-09-17 11:18:00,63.0,41.3,29.96,SW,219,0.0,0.0,45,0.00,,---,0.00,VWS V13.01,2013-09-17 15:18:00,
2013-09-17 11:23:00,63.5,41.2,29.96,SW,227,0.0,0.0,44,0.00,,---,0.00,VWS V13.01,2013-09-17 15:23:00,
2013-09-17 11:28:00,63.5,41.2,29.96,SSW,196,0.0,0.0,44,0.00,,---,0.00,VWS V13.01,2013-09-17 15:28:00,
2013-09-17 11:33:00,63.7,41.4,29.96,SW,223,2.7,2.7,44,0.00,,---,0.00,VWS V13.01,2013-09-17 15:33:00,
2013-09-17 11:38:00,64.0,41.7,29.96,SW,233,0.0,0.0,44,0.00,,---,0.00,VWS V13.01,2013-09-17 15:38:00,
2013-09-17 11:43:00,64.0,41.7,29.96,WSW,243,0.0,0.0,44,0.00,,---,0.00,VWS V13.01,2013-09-17 15:43:00,
2013-09-17 11:48:00,64.8,41.8,29.96,WSW,243,0.0,0.0,43,0.00,,---,0.00,VWS V13.01,2013-09-17 15:48:00,
2013-09-17 11:53:00,64.8,41.8,29.96,WSW,243,0.0,0.0,43,0.00,,---,0.00,VWS V13.01,2013-09-17 15:53:00,
2013-09-17 11:58:00,65.3,41.6,29.96,WSW,242,0.0,0.0,42,0.00,,---,0.00,VWS V13.01,2013-09-17 15:58:00,
2013-09-17 12:03:00,65.3,41.0,29.96,WSW,241,0.0,0.0,41,0.00,,---,0.00,VWS V13.01,2013-09-17 16:03:00,
2013-09-17 12:08:00,65.8,41.5,29.96,WSW,245,0.0,0.0,41,0.00,,---,0.00,VWS V13.01,2013-09-17 16:08:00,
2013-09-17 12:13:00,66.2,40.5,29.96,WSW,241,0.0,0.0,39,0.00,,---,0.00,VWS V13.01,2013-09-17 16:13:00,
2013-09-17 12:18:00,66.7,39.7,29.96,SW,227,0.0,0.0,37,0.00,,---,0.00,VWS V13.01,2013-09-17 16:18:00,
2013-09-17 12:23:00,67.1,39.3,29.96,WSW,240,3.6,3.6,36,0.00,,---,0.00,VWS V13.01,2013-09-17 16:23:00,
2013-09-17 12:28:00,67.8,40.6,29.96,SSW,194,0.0,0.0,37,0.00,,---,0.00,VWS V13.01,2013-09-17 16:28:00,
2013-09-17 12:33:00,67.8,39.9,29.96,WSW,238,2.7,2.7,36,0.00,,---,0.00,VWS V13.01,2013-09-17 16:33:00,
2013-09-17 12:38:00,67.3,38.7,29.96,SW,221,0.0,0.0,35,0.00,,---,0.00,VWS V13.01,2013-09-17 16:38:00,
2013-09-17 12:43:00,67.5,39.6,29.96,SW,233,0.0,0.0,36,0.00,,---,0.00,VWS V13.01,2013-09-17 16:43:00,
2013-09-17 12:48:00,68.5,39.8,29.96,SW,235,3.6,3.6,35,0.00,,---,0.00,VWS V13.01,2013-09-17 16:48:00,
2013-09-17 12:53:00,68.7,39.2,29.96,WSW,240,0.0,0.0,34,0.00,,---,0.00,VWS V13.01,2013-09-17 16:53:00,
2013-09-17 12:58:00,68.0,38.6,29.96,WSW,242,0.0,0.0,34,0.00,,---,0.00,VWS V13.01,2013-09-17 16:58:00,
2013-09-17 13:03:00,68.2,38.8,29.96,WSW,240,0.0,0.0,34,0.00,,---,0.00,VWS V13.01,2013-09-17 17:03:00,
2013-09-17 13:08:00,69.1,39.6,29.96,SW,232,0.0,0.0,34,0.00,,---,0.00,VWS V13.01,2013-09-17 17:08:00,
2013-09-17 13:13:00,69.6,39.3,29.96,SW,230,0.0,0.0,33,0.00,,---,0.00,VWS V13.01,2013-09-17 17:13:00,
2013-09-17 13:18:00,69.1,38.8,29.96,SW,235,2.7,2.7,33,0.00,,---,0.00,VWS V13.01,2013-09-17 17:18:00,
2013-09-17 13:23:00,69.8,38.6,29.96,WSW,246,0.0,2.2,32,0.00,,---,0.00,VWS V13.01,2013-09-17 17:23:00,
2013-09-17 13:28:00,70.7,39.4,29.96,WSW,245,3.1,3.1,32,0.00,,---,0.00,VWS V13.01,2013-09-17 17:28:00,
2013-09-17 13:33:00,71.4,40.0,29.96,SSW,203,0.0,0.0,32,0.00,,---,0.00,VWS V13.01,2013-09-17 17:33:00,
2013-09-17 13:38:00,70.5,38.5,29.96,WSW,242,2.7,2.7,31,0.00,,---,0.00,VWS V13.01,2013-09-17 17:38:00,
2013-09-17 13:43:00,70.5,36.8,29.96,WSW,237,2.2,2.2,29,0.00,,---,0.00,VWS V13.01,2013-09-17 17:43:00,
2013-09-17 13:48:00,70.7,36.9,29.96,WSW,255,0.0,2.2,29,0.00,,---,0.00,VWS V13.01,2013-09-17 17:48:00,
2013-09-17 13:53:00,70.0,38.0,29.96,WSW,241,0.0,0.0,31,0.00,,---,0.00,VWS V13.01,2013-09-17 17:53:00,
2013-09-17 13:58:00,71.1,38.9,29.96,WSW,242,2.2,4.0,31,0.00,,---,0.00,VWS V13.01,2013-09-17 17:58:00,
2013-09-17 14:03:00,71.1,38.1,29.96,WSW,243,0.0,0.0,30,0.00,,---,0.00,VWS V13.01,2013-09-17 18:03:00,
2013-09-17 14:08:00,71.8,35.1,29.96,SW,235,2.7,2.7,26,0.00,,---,0.00,VWS V13.01,2013-09-17 18:08:00,
2013-09-17 14:13:00,71.4,34.8,29.96,SW,236,0.0,0.0,26,0.00,,---,0.00,VWS V13.01,2013-09-17 18:13:00,
2013-09-17 14:18:00,69.8,35.3,29.96,SW,236,0.0,0.0,28,0.00,,---,0.00,VWS V13.01,2013-09-17 18:18:00,
2013-09-17 14:23:00,70.5,35.9,29.96,West,279,0.0,0.0,28,0.00,,---,0.00,VWS V13.01,2013-09-17 18:23:00,
2013-09-17 14:28:00,72.1,36.3,29.96,WSW,258,0.0,0.0,27,0.00,,---,0.00,VWS V13.01,2013-09-17 18:28:00,
2013-09-17 14:33:00,73.0,37.1,29.96,WSW,240,3.1,3.1,27,0.00,,---,0.00,VWS V13.01,2013-09-17 18:33:00,
2013-09-17 14:39:00,73.8,35.8,29.96,WSW,244,3.1,3.1,25,0.00,,---,0.00,VWS V13.01,2013-09-17 18:39:00,
2013-09-17 14:44:00,73.9,33.8,29.96,SW,236,0.0,0.0,23,0.00,,---,0.00,VWS V13.01,2013-09-17 18:44:00,
2013-09-17 14:49:00,74.3,34.1,29.96,West,272,0.0,0.0,23,0.00,,---,0.00,VWS V13.01,2013-09-17 18:49:00,
2013-09-17 14:54:00,74.5,34.3,29.96,WSW,238,2.7,2.7,23,0.00,,---,0.00,VWS V13.01,2013-09-17 18:54:00,
2013-09-17 14:59:00,72.5,32.6,29.96,SW,230,0.0,0.0,23,0.00,,---,0.00,VWS V13.01,2013-09-17 18:59:00,
2013-09-17 15:04:00,72.5,32.6,29.96,WSW,256,0.0,0.0,23,0.00,,---,0.00,VWS V13.01,2013-09-17 19:04:00,
2013-09-17 15:09:00,73.8,32.6,29.96,West,260,0.0,0.0,22,0.00,,---,0.00,VWS V13.01,2013-09-17 19:09:00,
2013-09-17 15:14:00,74.3,33.0,29.96,WSW,239,0.0,2.2,22,0.00,,---,0.00,VWS V13.01,2013-09-17 19:14:00,
2013-09-17 15:19:00,74.5,33.2,29.96,SW,235,0.0,0.0,22,0.00,,---,0.00,VWS V13.01,2013-09-17 19:19:00,
2013-09-17 15:24:00,74.7,33.3,29.96,SW,214,0.0,0.0,22,0.00,,---,0.00,VWS V13.01,2013-09-17 19:24:00,
2013-09-17 15:29:00,74.7,33.3,29.96,SW,236,0.0,0.0,22,0.00,,---,0.00,VWS V13.01,2013-09-17 19:29:00,
2013-09-17 15:34:00,72.3,31.4,29.96,SW,227,0.0,2.7,22,0.00,,---,0.00,VWS V13.01,2013-09-17 19:34:00,
2013-09-17 15:39:00,71.2,31.6,29.96,WSW,237,0.0,0.0,23,0.00,,---,0.00,VWS V13.01,2013-09-17 19:39:00,
2013-09-17 15:44:00,72.1,32.3,29.96,WSW,237,0.0,0.0,23,0.00,,---,0.00,VWS V13.01,2013-09-17 19:44:00,
2013-09-17 15:49:00,72.1,32.3,29.96,WSW,254,0.0,0.0,23,0.00,,---,0.00,VWS V13.01,2013-09-17 19:49:00,
2013-09-17 15:54:00,74.1,32.9,29.96,SW,231,0.0,0.0,22,0.00,,---,0.00,VWS V13.01,2013-09-17 19:54:00,
2013-09-17 15:59:00,73.9,31.6,29.96,WSW,237,2.7,2.7,21,0.00,,---,0.00,VWS V13.01,2013-09-17 19:59:00,
2013-09-17 16:04:00,73.0,32.0,29.96,NW,309,0.0,0.0,22,0.00,,---,0.00,VWS V13.01,2013-09-17 20:04:00,
2013-09-17 16:09:00,73.6,31.3,29.96,NW,307,0.0,0.0,21,0.00,,---,0.00,VWS V13.01,2013-09-17 20:09:00,
2013-09-17 16:14:00,73.9,32.7,29.96,West,259,0.0,0.0,22,0.00,,---,0.00,VWS V13.01,2013-09-17 20:14:00,
2013-09-17 16:19:00,74.3,33.0,29.96,SW,235,0.0,0.0,22,0.00,,---,0.00,VWS V13.01,2013-09-17 20:19:00,
2013-09-17 16:24:00,74.5,32.0,29.96,WSW,240,0.0,0.0,21,0.00,,---,0.00,VWS V13.01,2013-09-17 20:24:00,
2013-09-17 16:29:00,73.9,31.6,29.96,WSW,249,4.5,5.8,21,0.00,,---,0.00,VWS V13.01,2013-09-17 20:29:00,
2013-09-17 16:34:00,71.2,31.6,29.96,SW,236,0.0,0.0,23,0.00,,---,0.00,VWS V13.01,2013-09-17 20:34:00,
2013-09-17 16:39:00,70.9,31.3,29.96,SW,235,0.0,0.0,23,0.00,,---,0.00,VWS V13.01,2013-09-17 20:39:00,
2013-09-17 16:44:00,69.8,30.4,29.96,SW,235,0.0,0.0,23,0.00,,---,0.00,VWS V13.01,2013-09-17 20:44:00,
2013-09-17 16:49:00,70.0,31.6,29.96,SW,235,0.0,0.0,24,0.00,,---,0.00,VWS V13.01,2013-09-17 20:49:00,
2013-09-17 16:54:00,70.5,33.0,29.96,South,186,0.0,0.0,25,0.00,,---,0.00,VWS V13.01,2013-09-17 20:54:00,
2013-09-17 16:59:00,71.1,32.5,29.96,SW,235,0.0,0.0,24,0.00,,---,0.00,VWS V13.01,2013-09-17 20:59:00,
2013-09-17 17:04:00,71.8,30.9,29.96,WSW,239,3.6,3.6,22,0.00,,---,0.00,VWS V13.01,2013-09-17 21:04:00,
2013-09-17 17:09:00,71.2,31.6,29.96,WSW,239,0.0,0.0,23,0.00,,---,0.00,VWS V13.01,2013-09-17 21:09:00,
2013-09-17 17:14:00,70.5,31.0,29.96,WSW,239,0.0,0.0,23,0.00,,---,0.00,VWS V13.01,2013-09-17 21:14:00,
2013-09-17 17:19:00,69.6,30.2,29.96,WSW,239,0.0,0.0,23,0.00,,---,0.00,VWS V13.01,2013-09-17 21:19:00,
2013-09-17 17:24:00,69.4,31.1,29.96,WSW,237,0.0,0.0,24,0.00,,---,0.00,VWS V13.01,2013-09-17 21:24:00,
2013-09-17 17:29:00,69.8,31.4,29.96,SSW,194,0.0,0.0,24,0.00,,---,0.00,VWS V13.01,2013-09-17 21:29:00,
2013-09-17 17:34:00,70.0,31.6,29.96,South,188,0.0,0.0,24,0.00,,---,0.00,VWS V13.01,2013-09-17 21:34:00,
2013-09-17 17:39:00,70.2,31.7,29.96,SW,228,0.0,0.0,24,0.00,,---,0.00,VWS V13.01,2013-09-17 21:39:00,
2013-09-17 17:44:00,70.2,31.7,29.96,SW,228,0.0,0.0,24,0.00,,---,0.00,VWS V13.01,2013-09-17 21:44:00,
2013-09-17 17:49:00,70.2,31.7,29.96,SW,223,0.0,0.0,24,0.00,,---,0.00,VWS V13.01,2013-09-17 21:49:00,
2013-09-17 17:54:00,70.0,30.5,29.96,SW,223,0.0,0.0,23,0.00,,---,0.00,VWS V13.01,2013-09-17 21:54:00,
2013-09-17 17:59:00,69.8,30.4,29.96,SW,223,0.0,0.0,23,0.00,,---,0.00,VWS V13.01,2013-09-17 21:59:00,
2013-09-17 18:04:00,69.6,31.3,29.96,SW,223,0.0,0.0,24,0.00,,---,0.00,VWS V13.01,2013-09-17 22:04:00,
2013-09-17 18:09:00,69.3,31.0,29.96,SW,223,0.0,0.0,24,0.00,,---,0.00,VWS V13.01,2013-09-17 22:09:00,
2013-09-17 18:14:00,68.5,30.4,29.96,SW,223,0.0,0.0,24,0.00,,---,0.00,VWS V13.01,2013-09-17 22:14:00,
2013-09-17 18:19:00,68.0,30.9,29.96,SW,223,0.0,0.0,25,0.00,,---,0.00,VWS V13.01,2013-09-17 22:19:00,
2013-09-17 18:24:00,67.6,31.6,29.96,SW,223,0.0,0.0,26,0.00,,---,0.00,VWS V13.01,2013-09-17 22:24:00,
2013-09-17 18:29:00,67.6,31.6,29.96,SW,223,0.0,0.0,26,0.00,,---,0.00,VWS V13.01,2013-09-17 22:29:00,
2013-09-17 18:34:00,67.3,32.2,29.96,SW,223,0.0,0.0,27,0.00,,---,0.00,VWS V13.01,2013-09-17 22:34:00,
2013-09-17 18:39:00,67.1,32.0,29.96,SW,223,0.0,0.0,27,0.00,,---,0.00,VWS V13.01,2013-09-17 22:39:00,
2013-09-17 18:44:00,66.9,31.9,29.96,SW,223,0.0,0.0,27,0.00,,---,0.00,VWS V13.01,2013-09-17 22:44:00,
2013-09-17 18:49:00,66.7,32.6,29.96,SW,223,0.0,0.0,28,0.00,,---,0.00,VWS V13.01,2013-09-17 22:49:00,
2013-09-17 18:54:00,66.4,34.0,29.96,SW,223,0.0,0.0,30,0.00,,---,0.00,VWS V13.01,2013-09-17 22:54:00,
2013-09-17 18:59:00,66.0,35.3,29.96,SW,223,0.0,0.0,32,0.00,,---,0.00,VWS V13.01,2013-09-17 22:59:00,
2013-09-17 19:04:00,65.8,36.0,29.96,SW,223,0.0,0.0,33,0.00,,---,0.00,VWS V13.01,2013-09-17 23:04:00,
2013-09-17 19:09:00,65.5,35.6,29.96,SW,223,0.0,0.0,33,0.00,,---,0.00,VWS V13.01,2013-09-17 23:09:00,
2013-09-17 19:14:00,65.1,35.3,29.96,SW,223,0.0,0.0,33,0.00,,---,0.00,VWS V13.01,2013-09-17 23:14:00,
2013-09-17 19:19:00,64.8,35.8,29.96,SW,223,0.0,0.0,34,0.00,,---,0.00,VWS V13.01,2013-09-17 23:19:00,
2013-09-17 19:24:00,64.6,35.6,29.96,SW,223,0.0,0.0,34,0.00,,---,0.00,VWS V13.01,2013-09-17 23:24:00,
2013-09-17 19:29:00,64.2,36.0,29.96,SW,223,0.0,0.0,35,0.00,,---,0.00,VWS V13.01,2013-09-17 23:29:00,
2013-09-17 19:34:00,64.0,35.9,29.96,SW,223,0.0,0.0,35,0.00,,---,0.00,VWS V13.01,2013-09-17 23:34:00,
2013-09-17 19:39:00,63.7,35.5,29.96,SW,223,0.0,0.0,35,0.00,,---,0.00,VWS V13.01,2013-09-17 23:39:00,
2013-09-17 19:44:00,63.5,36.1,29.96,SW,223,0.0,0.0,36,0.00,,---,0.00,VWS V13.01,2013-09-17 23:44:00,
2013-09-17 19:49:00,63.1,35.8,29.96,SW,223,0.0,0.0,36,0.00,,---,0.00,VWS V13.01,2013-09-17 23:49:00,
2013-09-17 19:54:00,63.0,35.6,29.96,SW,223,0.0,0.0,36,0.00,,---,0.00,VWS V13.01,2013-09-17 23:54:00,
2013-09-17 19:59:00,62.8,36.2,29.96,SW,223,0.0,0.0,37,0.00,,---,0.00,VWS V13.01,2013-09-17 23:59:00,
2013-09-17 20:04:00,62.6,36.0,29.96,SW,223,0.0,0.0,37,0.00,,---,0.00,VWS V13.01,2013-09-18 00:04:00,
2013-09-17 20:09:00,62.2,36.3,29.96,SW,223,0.0,0.0,38,0.00,,---,0.00,VWS V13.01,2013-09-18 00:09:00,
2013-09-17 20:14:00,62.1,36.2,29.96,SW,223,0.0,0.0,38,0.00,,---,0.00,VWS V13.01,2013-09-18 00:14:00,
2013-09-17 20:19:00,62.1,36.2,29.96,SW,223,0.0,0.0,38,0.00,,---,0.00,VWS V13.01,2013-09-18 00:19:00,
2013-09-17 20:24:00,61.7,36.5,29.96,SW,223,0.0,0.0,39,0.00,,---,0.00,VWS V13.01,2013-09-18 00:24:00,
2013-09-17 20:29:00,61.5,36.3,29.96,SW,223,0.0,0.0,39,0.00,,---,0.00,VWS V13.01,2013-09-18 00:29:00,
2013-09-17 20:34:00,61.3,36.8,29.96,SW,223,0.0,0.0,40,0.00,,---,0.00,VWS V13.01,2013-09-18 00:34:00,
2013-09-17 20:39:00,61.2,36.7,29.96,SW,223,0.0,0.0,40,0.00,,---,0.00,VWS V13.01,2013-09-18 00:39:00,
2013-09-17 20:44:00,61.0,37.1,29.96,SW,223,0.0,0.0,41,0.00,,---,0.00,VWS V13.01,2013-09-18 00:44:00,
2013-09-17 20:49:00,60.6,37.4,29.96,SW,223,0.0,0.0,42,0.00,,---,0.00,VWS V13.01,2013-09-18 00:49:00,
2013-09-17 20:54:00,60.4,37.3,29.96,SW,223,0.0,0.0,42,0.00,,---,0.00,VWS V13.01,2013-09-18 00:54:00,
2013-09-17 20:59:00,60.3,37.1,29.96,SW,223,0.0,0.0,42,0.00,,---,0.00,VWS V13.01,2013-09-18 00:59:00,
2013-09-17 21:04:00,60.3,37.1,29.96,SW,223,0.0,0.0,42,0.00,,---,0.00,VWS V13.01,2013-09-18 01:04:00,
2013-09-17 21:09:00,60.1,37.5,29.96,SW,223,0.0,0.0,43,0.00,,---,0.00,VWS V13.01,2013-09-18 01:09:00,
2013-09-17 21:14:00,59.9,37.4,29.96,SW,223,0.0,0.0,43,0.00,,---,0.00,VWS V13.01,2013-09-18 01:14:00,
2013-09-17 21:19:00,59.7,37.2,29.96,SW,223,0.0,0.0,43,0.00,,---,0.00,VWS V13.01,2013-09-18 01:19:00,
2013-09-17 21:24:00,59.5,37.6,29.96,SW,223,0.0,0.0,44,0.00,,---,0.00,VWS V13.01,2013-09-18 01:24:00,
2013-09-17 21:29:00,59.4,37.5,29.96,SW,223,0.0,0.0,44,0.00,,---,0.00,VWS V13.01,2013-09-18 01:29:00,
2013-09-17 21:34:00,59.4,38.0,29.96,SW,223,0.0,0.0,45,0.00,,---,0.00,VWS V13.01,2013-09-18 01:34:00,
2013-09-17 21:39:00,59.2,37.9,29.96,SW,223,0.0,0.0,45,0.00,,---,0.00,VWS V13.01,2013-09-18 01:39:00,
2013-09-17 21:44:00,59.0,37.7,29.96,SW,223,0.0,0.0,45,0.00,,---,0.00,VWS V13.01,2013-09-18 01:44:00,
2013-09-17 21:49:00,58.8,37.5,29.96,SW,223,0.0,0.0,45,0.00,,---,0.00,VWS V13.01,2013-09-18 01:49:00,
2013-09-17 21:54:00,58.8,38.1,29.96,SW,223,0.0,0.0,46,0.00,,---,0.00,VWS V13.01,2013-09-18 01:54:00,
2013-09-17 21:59:00,58.6,37.9,29.96,SW,223,0.0,0.0,46,0.00,,---,0.00,VWS V13.01,2013-09-18 01:59:00,
2013-09-17 22:04:00,58.8,38.1,29.96,SW,223,0.0,0.0,46,0.00,,---,0.00,VWS V13.01,2013-09-18 02:04:00,
2013-09-17 22:09:00,58.8,38.1,29.96,SW,223,0.0,0.0,46,0.00,,---,0.00,VWS V13.01,2013-09-18 02:09:00,
2013-09-17 22:14:00,58.8,38.1,29.96,SW,223,0.0,0.0,46,0.00,,---,0.00,VWS V13.01,2013-09-18 02:14:00,
2013-09-17 22:19:00,58.6,37.9,29.96,SW,223,0.0,0.0,46,0.00,,---,0.00,VWS V13.01,2013-09-18 02:19:00,
2013-09-17 22:24:00,58.5,37.8,29.96,SW,223,0.0,0.0,46,0.00,,---,0.00,VWS V13.01,2013-09-18 02:24:00,
2013-09-17 22:30:00,58.5,37.8,29.96,SW,223,0.0,0.0,46,0.00,,---,0.00,VWS V13.01,2013-09-18 02:30:00,
2013-09-17 22:35:00,58.5,38.3,29.96,SW,223,0.0,0.0,47,0.00,,---,0.00,VWS V13.01,2013-09-18 02:35:00,
2013-09-17 22:40:00,58.3,38.2,29.96,SW,223,0.0,0.0,47,0.00,,---,0.00,VWS V13.01,2013-09-18 02:40:00,
2013-09-17 22:45:00,58.1,38.0,29.96,SW,223,0.0,0.0,47,0.00,,---,0.00,VWS V13.01,2013-09-18 02:45:00,
2013-09-17 22:50:00,58.1,38.0,29.96,SW,223,0.0,0.0,47,0.00,,---,0.00,VWS V13.01,2013-09-18 02:50:00,
2013-09-17 22:55:00,57.9,38.4,29.96,SW,223,0.0,0.0,48,0.00,,---,0.00,VWS V13.01,2013-09-18 02:55:00,
2013-09-17 23:00:00,57.9,38.4,29.96,SW,223,0.0,0.0,48,0.00,,---,0.00,VWS V13.01,2013-09-18 03:00:00,
2013-09-17 23:05:00,57.7,38.2,29.96,SW,223,0.0,0.0,48,0.00,,---,0.00,VWS V13.01,2013-09-18 03:05:00,
2013-09-17 23:10:00,57.6,38.6,29.96,SW,223,0.0,0.0,49,0.00,,---,0.00,VWS V13.01,2013-09-18 03:10:00,
2013-09-17 23:15:00,57.4,38.4,29.96,SW,223,0.0,0.0,49,0.00,,---,0.00,VWS V13.01,2013-09-18 03:15:00,
2013-09-17 23:20:00,57.2,37.7,29.96,SW,223,0.0,0.0,48,0.00,,---,0.00,VWS V13.01,2013-09-18 03:20:00,
2013-09-17 23:25:00,57.0,38.1,29.96,SW,223,0.0,0.0,49,0.00,,---,0.00,VWS V13.01,2013-09-18 03:25:00,
2013-09-17 23:30:00,57.0,38.6,29.96,SW,223,0.0,0.0,50,0.00,,---,0.00,VWS V13.01,2013-09-18 03:30:00,
2013-09-17 23:35:00,56.8,38.4,29.96,SW,223,0.0,0.0,50,0.00,,---,0.00,VWS V13.01,2013-09-18 03:35:00,
2013-09-17 23:40:00,56.8,38.4,29.96,SW,223,0.0,0.0,50,0.00,,---,0.00,VWS V13.01,2013-09-18 03:40:00,
2013-09-17 23:45:00,56.7,38.2,29.96,SW,223,0.0,0.0,50,0.00,,---,0.00,VWS V13.01,2013-09-18 03:45:00,
2013-09-17 23:50:00,56.7,38.2,29.96,SW,223,0.0,0.0,50,0.00,,---,0.00,VWS V13.01,2013-09-18 03:50:00,
2013-09-17 23:55:00,56.3,37.9,29.96,SW,223,0.0,0.0,50,0.00,,---,0.00,VWS V13.01,2013-09-18 03:55:00,